Location: Koslow
(50.3020°N, 18.5663°E)
Time: 21:15:02
(UTC+00:00)

STARLINK-48 - Pass Details

Date: 07 June 2020
Orbit: 505 x 506 km, 53.0° (Epoch: 04 July)

Event Time Altitude Azimuth Distance (km) Brightness Sun altitude
Exits shadow 00:19:01 25° 200° (SSW) 1,039 4.4 -14.0°
Maximum altitude 00:20:44 41° 147° (SSE) 739 4.0 -13.9°
Drops below altitude 10° 00:24:26 10° 76° (ENE) 1,723 6.7 -13.7°
Sets 00:26:42 0° 69° (ENE) 2,611 7.8 -13.5°
